Flag for U.S.A. Weather past 2 weeks in Pensacola, Florida, U.S.A.

Now
65 °F

Fog.


Feels Like: 65 °F
Forecast: 64 / 74 °F
Wind: 9 mph from South

Location: Pensacola Regional Airport

Current Time: Mar 4, 2015 at 10:12:38 AM

Latest Report: Mar 4, 2015 at 8:53 AM


Visibility: 0 mi

Pressure: 30.08 "Hg

Humidity: 100%

Dew point: 65 °F

Location of PensacolaLocation

Historic Weather in Pensacola — Graph

°F

Pensacola temperature yesterday

Maximum temperature yesterday: 68 °F (at 3:03 PM)
Minimum temperature yesterday: 60 °F (at 3:53 AM)
Average temperature yesterday: 64 °F

Past Weeks' High & Low Weather Summary

 TemperatureHumidityPressure
High74 °F (Feb 22, 1:00 PM)100% (Feb 22, 11:01 PM)30.48 "Hg (Feb 22, 11:01 PM)
Low28 °F (Feb 19, 5:53 AM)17% (Feb 18, 3:53 PM)29.57 "Hg (Feb 25, 5:53 PM)
Average50 °F75%30.19 "Hg
* Reported Feb 17 8:53 AM — Mar 4 8:53 AM, Pensacola, Weather by CustomWeather, © 2015

Note: Actual official high and low records may vary slightly from our data, if they occured in-between our weather recording intervals... More about our weather records

Advertising

Pensacola weather history for previous 24 hours

 ConditionsComfort  
Time TempWeatherWind HumidityBarometerVisibility
8:53 AM
Wed, Mar 4
65 °FFog.9 mph100%30.08 "Hg0 mi
7:53 AM66 °FFog.9 mph100%30.06 "Hg0 mi
6:53 AM66 °FFog.8 mph96%30.05 "Hg0 mi
6:01 AM65 °FFog.8 mph100%30.03 "Hg1 mi
5:02 AM65 °FFog.6 mph97%30.03 "Hg0 mi
4:53 AM64 °FFog.8 mph100%30.03 "Hg1 mi
3:53 AM64 °FFog.10 mph97%30.03 "Hg0 mi
3:00 AM64 °FFog.10 mph100%30.03 "Hg4 mi
2:00 AM64 °FFog.9 mph97%30.04 "Hg5 mi
12:53 AM62 °FClear.7 mph96%30.06 "Hg7 mi
11:53 PM
Tue, Mar 3
63 °FFog.8 mph97%30.07 "Hg6 mi
10:53 PM63 °FFog.9 mph97%30.08 "Hg5 mi
9:53 PM63 °FFog.8 mph100%30.09 "Hg2 mi
8:53 PM63 °FFog.9 mph100%30.09 "Hg0 mi
8:01 PM64 °FFog.9 mph97%30.08 "Hg1 mi
6:53 PM63 °FClear.7 mph97%30.08 "Hg10 mi
5:53 PM64 °FPassing clouds.8 mph97%30.08 "Hg9 mi
4:53 PM66 °FMostly cloudy.8 mph90%30.09 "Hg10 mi
3:53 PM67 °FLow clouds.8 mph87%30.10 "Hg10 mi
3:03 PM68 °FOvercast.7 mph84%30.10 "Hg10 mi
2:53 PM67 °FLow clouds.8 mph87%30.11 "Hg10 mi
1:53 PM67 °FLow clouds.10 mph85%30.13 "Hg6 mi
12:53 PM67 °FMostly cloudy.9 mph87%30.15 "Hg8 mi
12:00 PM66 °FMore clouds than sun.8 mph90%30.18 "Hg10 mi
11:00 AM64 °FFog.7 mph97%30.19 "Hg3 mi
Weather by CustomWeather, © 2015

See weather overviewHow to use our weather pages